Location: �perlecques
(50.8057°N, 2.1521°E)
Time: 20:40:53
(UTC+00:00)

Oscar 11 - Pass Details

Date: 01 October 2021
Orbit: 612 x 625 km, 97.6° (Epoch: 25 October)

Event Time Altitude Azimuth Distance (km) Brightness Sun altitude
Rises 04:32:06 0° 24° (NNE) 2,893 11.0 -13.4°
Reaches altitude 10° 04:34:43 10° 40° (NE) 1,982 10.4 -13.0°
Maximum altitude 04:38:05 22° 92° (E) 1,354 9.8 -12.4°
Drops below altitude 10° 04:41:26 10° 143° (SE) 1,972 10.0 -11.9°
Sets 04:44:02 0° 159° (SSE) 2,873 10.6 -11.5°
